STARLINK-5069, 55640

Orbit data source: Space-Track

STARLINK-5069, 55640 is a payload satellite owned by SpaceX/Seattle (US) in LEO that was launched on Fri, 17 Feb 2023 UTC via an FALCON 9 launch vehicle from the Air Force Western Test Range (AFWTR). Payload-class satellites include a variety of spacecraft equipped with specific instruments for various scientific and technological missions. These include communications satellites like Starlink; space stations such as the ISS; scientific satellites like the Hubble; Earth observation satellites from companies like Planet Labs, Umbra, and HawkEye 360; GPS; miniature CubeSats for education and research; and military/defense satellites.

Loading next visibility...
Identifier
55640, 2023-021N
Orbit
LEO
Country
Flag of USUS
Related business
Manufacturer
SpaceX/Seattle
Mission
Operational Commercial Communications
Bus & Motor
STARLINK, Unknown motor
Mass
305 kg wet, ~290 kg dry
Launch date (UTC)
2023-02-17 (3 years ago)
Launch vehicle
FALCON 9
Launch site
Air Force Western Test Range (AFWTR)
Object type
Payload
Rocket body
Debris
Shape & HBR
Box + 1 Pan, 10.1 m
Radar Cross Section
13.562 m², Large (>1 m²)

Expand to show TLE details & history
Last TLE update: 2 days ago

TLE from 2 days ago
0 STARLINK-5069
1 55640U 23021N   26171.44167183 -.00000132  00000-0 -33104-5 0  9993
2 55640  69.9997 285.3379 0002754 267.4173  92.6671 14.98329211184189
Epoch: 2026-06-20T10:36Z
TLE epoch observation values (Epoch: 2026-06-20T10:36:00.446Z)
Latitude
0.00001°
Longitude
-142.3202°
Altitude
574.572 km
Speed
7.574 km/s
True Right ascension
19h 01m 21s
True Declination
0° 00' 00"
Sunlit
Object was in full shadow at epoch
Visualization orbit readout
Latitude
Unknown
Longitude
Unknown
Altitude
Unknown
Speed
Unknown
Apparent Right ascension
Unknown
Apparent Declination
Unknown
Sunlit
N/A
Visualization observer readout
Local Sidereal Time
21:37:21
Azimuth
Unknown
Elevation
Unknown
Doppler factor
Unknown
Orbital elements
Apogee altitude
571.92 km
Perigee altitude
568.093 km
Semi-major axis
6,948.144 km
Eccentricity
0.00028
Inclination
69.9997°
RAAN
285.3379°
Arg. of periapsis
267.4173°
True anomaly
92.69862°
Mean anomaly
92.6671°
Eccentric anomaly
92.68286°
Mean motion
3.74749 °/min
Orbital period
96.06 mins
BSTAR
-0.0000033104
Loading maneuver chart data...
Computing Atmospheric mass density...

Documentation

Showing up to 5 results
|